Location: Home
(42.5358°N, 72.7383°W)
Time: 05:58:01
(UTC-04:00)

COSMOS 2251 DEB - Pass Details

Date: 03 July 2022
Orbit: 769 x 1233 km, 74.1° (Epoch: 15 August)

Event Time Altitude Azimuth Distance (km) Brightness Sun altitude
Exits shadow 02:51:31 25° 245° (WSW) 1,812 ? -19.2°
Maximum altitude 02:54:35 42° 299° (WNW) 1,393 ? -19.0°
Drops below altitude 10° 03:00:59 10° 9° (N) 2,928 ? -18.4°
Sets 03:03:58 0° 16° (NNE) 3,958 ? -18.1°
